SHIJIAN-21 (SJ-21)

Last updated on Sun Jun 21 2026 00:03:08 GMT+0000 (Coordinated Universal Time)

1 49330U 21094A 26171.49129501 -.00000353 00000+0 00000+0 0 9993 2 49330 5.1217 61.1679 0049654 168.2525 344.1673 1.00269328 5390
UTC large
Height (km)
Speed (km/s)
/
Latitude / Longitude
Inclination (degrees)
Orbital Period (minutes)
Azimuth
Elevation
Range (km)
Doppler Factor

Next 0 passes for location: London (51.5072 / 0.1276)

No passes found over London.
SHIJIAN-21 (SJ-21)